Location: Berkeley
(37.8716°N, 122.2727°W)
Time: 19:56:25
(UTC-07:00)

Envisat - Pass Details

Date: 15 May 2026
Orbit: 761 x 763 km, 98.4° (Epoch: 9 June)

Event Time Altitude Azimuth Distance (km) Brightness Sun altitude
Rises 05:15:38 0° 351° (N) 3,230 6.6 -8.3°
Reaches altitude 10° 05:19:15 10° 324° (NW) 2,298 5.4 -7.7°
Maximum altitude 05:21:24 13° 298° (WNW) 2,105 5.0 -7.4°
Drops below altitude 10° 05:23:33 10° 273° (W) 2,292 5.0 -7.0°
Enters shadow 05:25:00 - 259° (W) 2,595 5.1 -6.8°
